Flag for Germany Weather past 2 weeks in Niederkassel, North Rhine-Westphalia, Germany

Now
42 °F

Fog.


Feels Like: 38 °F
Forecast: 39 / 47 °F
Wind: 7 mph from West

Location: Bonn-Hangelar

Current Time: Mar 26, 2015 at 11:46:56 PM

Latest Report: Mar 26, 2015 at 11:00 PM


Visibility: 4 mi

Pressure: 29.81 "Hg

Humidity: 96%

Dew point: 41 °F

Location of NiederkasselLocation

Historic Weather in Niederkassel — Graph

°F

Niederkassel temperature yesterday

Maximum temperature yesterday: 43 °F (at 12:00 AM)
Minimum temperature yesterday: 38 °F (at 9:00 AM)
Average temperature yesterday: 40 °F

Past Weeks' High & Low Weather Summary

 TemperatureHumidityPressure
High60 °F (Mar 17, 1:00 PM)100% (Mar 16, 7:00 AM)30.47 "Hg (Mar 16, 7:00 AM)
Low32 °F (Mar 16, 4:00 AM)46% (Mar 17, 1:00 PM)29.68 "Hg (Mar 25, 4:00 AM)
Average41 °F83%30.16 "Hg
* Reported Mar 11 10:00 PM — Mar 26 10:00 PM, Niederkassel, Weather by CustomWeather, © 2015

Note: Actual official high and low records may vary slightly from our data, if they occured in-between our weather recording intervals... More about our weather records

Advertising

Niederkassel weather history for previous 24 hours

 ConditionsComfort  
Time TempWeatherWind HumidityBarometerVisibility
10:00 PM
Thu, Mar 26
42 °FLow clouds.7 mph96%29.80 "Hg6 mi
9:00 PM40 °FLight freezing rain. Low clouds.9 mph95%29.78 "Hg4 mi
8:00 PM40 °FLight freezing rain. Low clouds.12 mph94%29.75 "Hg4 mi
7:00 PM39 °FLight rain. Low clouds.10 mph91%29.74 "Hg12 mi
6:00 PM40 °FLight rain. Low clouds.9 mph88%29.73 "Hg5 mi
5:00 PM40 °FLight rain. Overcast.8 mph85%29.73 "Hg12 mi
4:00 PM39 °FLight rain. Overcast.9 mph90%29.75 "Hg7 mi
3:00 PM42 °FLight rain. Overcast.12 mph65%29.74 "Hg25 mi
2:00 PM44 °FOvercast.8 mph60%29.75 "Hg31 mi
1:00 PM45 °FOvercast.8 mph63%29.76 "Hg31 mi
12:00 PM44 °FOvercast.5 mph67%29.78 "Hg19 mi
11:00 AMN/AOvercast.7 mphN/AN/A19 mi
10:00 AM40 °FOvercast.6 mph79%29.82 "Hg16 mi
9:00 AM39 °FPartly sunny.6 mph88%29.83 "Hg12 mi
8:00 AM37 °FLow clouds.5 mph97%29.84 "Hg7 mi
7:00 AM37 °FFog.5 mph99%29.84 "Hg2 mi
6:00 AM37 °FFog.6 mph99%29.83 "Hg4 mi
5:00 AM37 °FFog.7 mph99%29.83 "Hg1 mi
4:00 AM37 °FFog.5 mph98%29.82 "Hg3 mi
3:00 AM38 °FFog.6 mph97%29.82 "Hg2 mi
2:00 AM38 °FFog.5 mph97%29.82 "Hg2 mi
1:00 AM39 °FFog.5 mph97%29.82 "Hg2 mi
12:00 AM39 °FFog.5 mph96%29.82 "Hg2 mi
11:00 PM
Wed, Mar 25
40 °FLow clouds.6 mph98%29.82 "Hg2 mi
Weather by CustomWeather, © 2015

See weather overviewHow to use our weather pages